| time (UTC) | temp F | wind direction | speed MPH | gust MPH | rain 1hr in | rain 24hr in | rain mn in | humidity % | barometer mb |
| 20260508073055 | 60 | 172 | 5.0 | 8.0 | 0.00 | 0.00 | 0.00 | 79 | 1015.2 |
| 20260508071557 | 60 | 165 | 3.0 | 8.0 | 0.00 | 0.00 | 0.00 | 79 | 1015.3 |
| 20260508070100 | 59 | 180 | 3.0 | 8.0 | 0.00 | 0.00 | 0.00 | 79 | 1015.6 |
| 20260508064555 | 59 | 163 | 4.0 | 6.0 | 0.00 | 0.00 | 0.00 | 79 | 1015.8 |
| 20260508063104 | 59 | 175 | 1.0 | 3.0 | 0.00 | 0.00 | 0.00 | 78 | 1015.8 |
| 20260508061604 | 59 | 174 | 2.0 | 8.0 | 0.00 | 0.00 | 0.00 | 78 | 1015.7 |
| 20260508060056 | 59 | 184 | 3.0 | 9.0 | 0.00 | 0.00 | 0.00 | 77 | 1015.8 |
| 20260508054559 | 59 | 167 | 6.0 | 14.0 | 0.00 | 0.00 | 0.00 | 76 | 1015.8 |
| 20260508053104 | 59 | 151 | 6.0 | 11.0 | 0.00 | 0.00 | 0.00 | 73 | 1015.8 |
| 20260508051604 | 59 | 161 | 8.0 | 16.0 | 0.00 | 0.00 | 0.00 | 73 | 1015.6 |
| 20260508050057 | 60 | 154 | 11.0 | 17.0 | 0.00 | 0.00 | 0.00 | 72 | 1015.4 |
| 20260508044552 | 60 | 163 | 12.0 | 16.0 | 0.00 | 0.00 | 0.00 | 71 | 1015.6 |
| 20260508043054 | 60 | 135 | 9.0 | 17.0 | 0.00 | 0.00 | 0.00 | 68 | 1016.1 |
| 20260508041553 | 60 | 164 | 10.0 | 20.0 | 0.00 | 0.00 | 0.00 | 66 | 1016.0 |
| 20260508040052 | 61 | 150 | 14.0 | 20.0 | 0.00 | 0.00 | 0.00 | 64 | 1015.9 |
| 20260508034553 | 61 | 140 | 13.0 | 19.0 | 0.00 | 0.00 | 0.00 | 61 | 1015.7 |
| 20260508033056 | 62 | 155 | 11.0 | 19.0 | 0.00 | 0.00 | 0.00 | 58 | 1015.9 |
| 20260508031552 | 63 | 140 | 11.0 | 15.0 | 0.00 | 0.00 | 0.00 | 53 | 1016.0 |
| 20260508030051 | 64 | 138 | 11.0 | 14.0 | 0.00 | 0.00 | 0.00 | 50 | 1016.1 |
| 20260508024600 | 64 | 143 | 10.0 | 14.0 | 0.00 | 0.00 | 0.00 | 49 | 1016.3 |
| 20260508023055 | 65 | 144 | 11.0 | 14.0 | 0.00 | 0.00 | 0.00 | 47 | 1016.2 |
| 20260508021552 | 66 | 136 | 10.0 | 16.0 | 0.00 | 0.00 | 0.00 | 46 | 1015.7 |
| 20260508020053 | 66 | 144 | 11.0 | 20.0 | 0.00 | 0.00 | 0.00 | 46 | 1015.7 |
| 20260508014555 | 66 | 140 | 15.0 | 19.0 | 0.00 | 0.00 | 0.00 | 45 | 1015.5 |
| 20260508013052 | 67 | 147 | 14.0 | 21.0 | 0.00 | 0.00 | 0.00 | 44 | 1015.3 |
| 20260508011605 | 68 | 152 | 14.0 | 21.0 | 0.00 | 0.00 | 0.00 | 45 | 1015.0 |
| 20260508010056 | 69 | 141 | 15.0 | 20.0 | 0.00 | 0.00 | 0.00 | 44 | 1015.2 |
| 20260508004558 | 70 | 148 | 12.0 | 19.0 | 0.00 | 0.00 | 0.00 | 43 | 1015.0 |
| 20260508003053 | 70 | 142 | 13.0 | 20.0 | 0.00 | 0.00 | 0.00 | 43 | 1015.2 |
| 20260508001555 | 71 | 139 | 14.0 | 21.0 | 0.00 | 0.00 | 0.00 | 42 | 1015.0 |
| 20260508000058 | 72 | 134 | 11.0 | 17.0 | 0.00 | 0.00 | 0.00 | 41 | 1015.2 |
| 20260507234555 | 72 | 122 | 12.0 | 18.0 | 0.00 | 0.00 | 0.00 | 40 | 1015.2 |
| 20260507233054 | 73 | 192 | 8.0 | 15.0 | 0.00 | 0.00 | 0.00 | 39 | 1015.3 |
| 20260507231558 | 73 | 110 | 12.0 | 20.0 | 0.00 | 0.00 | 0.00 | 40 | 1015.4 |
| 20260507230054 | 73 | 144 | 11.0 | 18.0 | 0.00 | 0.00 | 0.00 | 39 | 1015.4 |
| 20260507224556 | 74 | 148 | 12.0 | 19.0 | 0.00 | 0.00 | 0.00 | 38 | 1015.4 |
| 20260507223056 | 74 | 164 | 12.0 | 18.0 | 0.00 | 0.00 | 0.00 | 37 | 1015.6 |
| 20260507221551 | 75 | 138 | 9.0 | 19.0 | 0.00 | 0.00 | 0.00 | 36 | 1015.8 |
| 20260507220054 | 75 | 113 | 9.0 | 15.0 | 0.00 | 0.00 | 0.00 | 37 | 1015.9 |
| 20260507214555 | 73 | 69 | 6.0 | 17.0 | 0.00 | 0.00 | 0.00 | 39 | 1016.2 |
| 20260507213054 | 74 | 136 | 7.0 | 14.0 | 0.00 | 0.00 | 0.00 | 38 | 1016.5 |
| 20260507211554 | 72 | 108 | 8.0 | 14.0 | 0.00 | 0.00 | 0.00 | 39 | 1016.6 |
| 20260507210056 | 72 | 111 | 5.0 | 14.0 | 0.00 | 0.00 | 0.00 | 40 | 1016.8 |
| 20260507204553 | 71 | 94 | 3.0 | 14.0 | 0.00 | 0.00 | 0.00 | 40 | 1017.0 |
| 20260507203057 | 70 | 84 | 6.0 | 14.0 | 0.00 | 0.00 | 0.00 | 41 | 1017.1 |
| 20260507201609 | 70 | 118 | 7.0 | 14.0 | 0.00 | 0.00 | 0.00 | 41 | 1017.5 |
| 20260507200057 | 69 | 142 | 4.0 | 15.0 | 0.00 | 0.00 | 0.00 | 42 | 1017.6 |
| 20260507194554 | 68 | 55 | 2.0 | 10.0 | 0.00 | 0.00 | 0.00 | 44 | 1017.6 |
| 20260507193056 | 68 | 72 | 9.0 | 14.0 | 0.00 | 0.00 | 0.00 | 44 | 1017.9 |
| 20260507191601 | 68 | 83 | 5.0 | 12.0 | 0.00 | 0.00 | 0.00 | 44 | 1018.3 |
| 20260507190053 | 67 | 0 | 1.0 | 12.0 | 0.00 | 0.00 | 0.00 | 45 | 1018.6 |
| 20260507184601 | 66 | 33 | 5.0 | 9.0 | 0.00 | 0.00 | 0.00 | 46 | 1018.8 |
| 20260507183102 | 65 | 130 | 5.0 | 12.0 | 0.00 | 0.00 | 0.00 | 48 | 1019.2 |
| 20260507181555 | 64 | 99 | 6.0 | 11.0 | 0.00 | 0.00 | 0.00 | 50 | 1019.2 |
| 20260507180100 | 63 | 51 | 7.0 | 13.0 | 0.00 | 0.00 | 0.00 | 50 | 1019.7 |
| 20260507174605 | 63 | 114 | 9.0 | 14.0 | 0.00 | 0.00 | 0.00 | 51 | 1019.9 |
| 20260507173102 | 62 | 93 | 10.0 | 14.0 | 0.00 | 0.00 | 0.00 | 52 | 1019.9 |
| 20260507171604 | 61 | 75 | 10.0 | 14.0 | 0.00 | 0.00 | 0.00 | 54 | 1020.1 |
| 20260507170055 | 60 | 62 | 10.0 | 15.0 | 0.00 | 0.00 | 0.00 | 55 | 1020.4 |
| 20260507164556 | 59 | 80 | 11.0 | 17.0 | 0.00 | 0.00 | 0.00 | 57 | 1020.8 |
| 20260507163052 | 59 | 71 | 10.0 | 16.0 | 0.00 | 0.00 | 0.00 | 59 | 1020.8 |
| 20260507161558 | 57 | 75 | 9.0 | 15.0 | 0.00 | 0.00 | 0.00 | 60 | 1021.0 |
| 20260507160053 | 57 | 64 | 11.0 | 16.0 | 0.00 | 0.00 | 0.00 | 62 | 1021.0 |
| 20260507154553 | 56 | 59 | 9.0 | 16.0 | 0.00 | 0.00 | 0.00 | 63 | 1021.4 |
| 20260507153056 | 55 | 82 | 12.0 | 17.0 | 0.00 | 0.00 | 0.00 | 64 | 1021.3 |
| 20260507151555 | 55 | 64 | 13.0 | 18.0 | 0.00 | 0.00 | 0.00 | 65 | 1021.3 |
| 20260507150054 | 55 | 61 | 13.0 | 18.0 | 0.00 | 0.00 | 0.00 | 66 | 1021.5 |
| 20260507144615 | 54 | 51 | 13.0 | 20.0 | 0.00 | 0.00 | 0.00 | 67 | 1021.1 |
| 20260507143057 | 54 | 81 | 12.0 | 19.0 | 0.00 | 0.00 | 0.00 | 68 | 1021.4 |
| 20260507141622 | 53 | 75 | 16.0 | 21.0 | 0.00 | 0.00 | 0.00 | 69 | 1021.2 |
| 20260507140058 | 53 | 94 | 13.0 | 19.0 | 0.00 | 0.00 | 0.00 | 70 | 1021.1 |
| 20260507134551 | 53 | 74 | 13.0 | 18.0 | 0.00 | 0.00 | 0.00 | 71 | 1021.2 |
| 20260507133056 | 52 | 61 | 13.0 | 18.0 | 0.00 | 0.00 | 0.00 | 72 | 1021.1 |
| 20260507131551 | 52 | 52 | 14.0 | 18.0 | 0.00 | 0.00 | 0.00 | 73 | 1020.9 |
| 20260507130105 | 51 | 74 | 13.0 | 18.0 | 0.00 | 0.00 | 0.00 | 74 | 1020.8 |
| 20260507124554 | 51 | 63 | 11.0 | 17.0 | 0.00 | 0.00 | 0.00 | 74 | 1020.7 |
| 20260507123051 | 51 | 71 | 14.0 | 20.0 | 0.00 | 0.00 | 0.00 | 75 | 1020.4 |
| 20260507121552 | 51 | 61 | 13.0 | 21.0 | 0.00 | 0.00 | 0.00 | 75 | 1020.2 |
| 20260507120055 | 51 | 72 | 14.0 | 20.0 | 0.00 | 0.00 | 0.00 | 74 | 1020.1 |
| 20260507114558 | 51 | 84 | 12.0 | 21.0 | 0.00 | 0.00 | 0.00 | 73 | 1019.9 |
| 20260507113053 | 52 | 60 | 12.0 | 19.0 | 0.00 | 0.00 | 0.00 | 72 | 1019.9 |
| 20260507111552 | 52 | 65 | 14.0 | 20.0 | 0.00 | 0.00 | 0.00 | 71 | 1019.7 |
| 20260507110056 | 53 | 73 | 16.0 | 24.0 | 0.00 | 0.00 | 0.00 | 70 | 1019.7 |
| 20260507104557 | 53 | 61 | 15.0 | 20.0 | 0.00 | 0.00 | 0.00 | 69 | 1019.9 |
| 20260507103100 | 53 | 54 | 14.0 | 18.0 | 0.00 | 0.00 | 0.00 | 68 | 1020.2 |
| 20260507101556 | 54 | 63 | 14.0 | 22.0 | 0.00 | 0.00 | 0.00 | 67 | 1019.7 |
| 20260507100052 | 54 | 65 | 16.0 | 20.0 | 0.00 | 0.00 | 0.00 | 66 | 1019.7 |
| 20260507094554 | 55 | 61 | 12.0 | 18.0 | 0.00 | 0.00 | 0.00 | 64 | 1019.8 |
| 20260507093102 | 55 | 59 | 14.0 | 23.0 | 0.00 | 0.00 | 0.00 | 63 | 1019.8 |
| 20260507091600 | 56 | 62 | 14.0 | 23.0 | 0.00 | 0.00 | 0.00 | 62 | 1019.4 |
| 20260507090056 | 57 | 63 | 17.0 | 24.0 | 0.00 | 0.00 | 0.00 | 61 | 1019.3 |
| 20260507084601 | 58 | 61 | 15.0 | 20.0 | 0.00 | 0.00 | 0.00 | 61 | 1019.2 |
| 20260507083056 | 58 | 59 | 15.0 | 22.0 | 0.00 | 0.00 | 0.00 | 62 | 1018.9 |
| 20260507081559 | 58 | 69 | 14.0 | 20.0 | 0.00 | 0.00 | 0.00 | 63 | 1018.6 |
| 20260507080053 | 58 | 69 | 13.0 | 18.0 | 0.00 | 0.00 | 0.00 | 61 | 1018.8 |
| 20260507074556 | 58 | 81 | 12.0 | 16.0 | 0.00 | 0.00 | 0.00 | 59 | 1018.6 |